Location: Arrecife
(10.5858°N, 67.0742°W)
Time: 21:47:46
(UTC+00:00)

CZ-4 R/B - Visible Passes

Search period start: 28 June 2022 00:00
Search period end: 08 July 2022 00:00
Orbit: 578 x 588 km, 97.7° (Epoch: 28 June)

Date Brightness Start Highest point End Pass type
(mag) Time Alt. Az. Time Alt. Az. Time Alt. Az.
01 Jul 4.5 23:11:39 10° S 23:15:45 88° WSW 23:19:51 10° NNW visible
02 Jul 4.7 23:17:36 10° S 23:21:41 72° W 23:25:46 10° NNW visible
03 Jul 5.1 23:23:36 10° S 23:27:37 57° W 23:31:39 10° NNW visible
04 Jul 5.5 23:29:37 10° S 23:33:33 46° W 23:37:29 10° NNW visible
05 Jul 5.9 23:35:42 10° SSW 23:39:29 37° W 23:43:17 10° NNW visible
06 Jul 6.3 23:41:49 10° SSW 23:45:25 30° W 23:49:02 10° NW visible
07 Jul 6.7 23:47:58 10° SSW 23:51:21 25° W 23:54:44 10° NW visible
